Rochester, NY

3:42 PM EDT on July 23, 2017 (GMT -0400)
Greater Rochester International

Weather History for KROC - April, 2014

Change the Weather History Date:

Monday, April 7, 2014

  Actual Average Record
Temperature  
Mean Temperature 41 °F 43 °F  
Max Temperature 52 °F 52 °F 79 °F (1991)
Min Temperature 30 °F 34 °F 13 °F (1982)
Degree Days  
Heating Degree Days 24 22  
Month to date heating degree days 180 164  
Since 1 July heating degree days 6413 5902  
Cooling Degree Days 0 0  
Month to date cooling degree days 0 0  
Year to date cooling degree days 0 0  
Moisture  
Dew Point 31 °F    
Average Humidity 62    
Maximum Humidity 93    
Minimum Humidity 30    
Precipitation  
Precipitation 0.61 in 0.09 in 1.00 in (1893)
Month to date precipitation 1.13 0.65  
Year to date precipitation 7.11 7.51  
Snow  
Snow 0.00 in 0.20 in 4.90 in (1886)
Month to date snowfall 0.1 1.6  
Since 1 July snowfall 112.5 96.8  
Snow Depth 0.00 in    
Sea Level Pressure  
Sea Level Pressure 29.85 in    
Wind  
Wind Speed 9 mph (SE)    
Max Wind Speed 23 mph    
Max Gust Speed 31 mph    
Visibility 8 miles    
Events Rain , Thunderstorm    
T = Trace of Precipitation, MM = Missing Value Source: NWS Daily Summary

Daily Weather History Graph

Daily Weather History Graph

Search for Another Location

Airport or City:

Trip Planner

Search our weather history database for the weather conditions in past years. The results will help you decide how hot, cold, wet, or windy it might be!

Date:

Astronomy

Apr. 07, 2014 Rise Set
Actual Time 6:42 AM EDT 7:44 PM EDT
Civil Twilight 6:13 AM EDT 8:13 PM EDT
Nautical Twilight 5:38 AM EDT 8:47 PM EDT
Astronomical Twilight 5:02 AM EDT 9:24 PM EDT
Moon 12:32 PM EDT (4/7) 2:24 AM EDT (4/7)
Length of Visible Light 13h 59m
Length of Day
13h 01m
First Quarter, 53% of the Moon is Illuminated
Apr 7
First Quarter
Apr 15
Full
Apr 22
Last Quarter
Apr 29
New
May 6
First Quarter

Hourly Weather History & Observations

Time (EDT) Temp. Windchill Dew Point Humidity Pressure Visibility Wind Dir Wind Speed Gust Speed Precip Events Conditions
12:54 AM 39.0 °F 36.8 °F 26.1 °F 60% 30.13 in 10.0 mi ESE 3.5 mph - N/A   Scattered Clouds
1:54 AM 37.0 °F 34.5 °F 27.0 °F 67% 30.10 in 10.0 mi SE 3.5 mph - N/A   Partly Cloudy
2:54 AM 33.1 °F - 25.0 °F 72% 30.09 in 10.0 mi Calm Calm - N/A   Partly Cloudy
3:54 AM 32.0 °F - 26.1 °F 79% 30.09 in 10.0 mi Calm Calm - N/A   Partly Cloudy
4:54 AM 32.0 °F - 27.0 °F 82% 30.07 in 10.0 mi Calm Calm - N/A   Partly Cloudy
5:54 AM 35.1 °F 32.2 °F 26.1 °F 70% 30.04 in 10.0 mi ESE 3.5 mph - N/A   Mostly Cloudy
6:54 AM 37.9 °F 32.1 °F 24.1 °F 57% 30.04 in 10.0 mi SE 8.1 mph - N/A   Mostly Cloudy
7:54 AM 41.0 °F 37.1 °F 23.0 °F 49% 30.04 in 10.0 mi SE 5.8 mph - N/A   Mostly Cloudy
8:54 AM 44.1 °F 40.8 °F 25.0 °F 47% 30.02 in 10.0 mi SE 5.8 mph - N/A   Overcast
9:54 AM 46.0 °F 42.5 °F 26.1 °F 46% 30.00 in 10.0 mi ESE 6.9 mph - N/A   Overcast
10:54 AM 48.0 °F - 26.1 °F 42% 29.99 in 10.0 mi SSE 8.1 mph - N/A   Overcast
11:54 AM 52.0 °F - 24.1 °F 34% 29.96 in 10.0 mi SSE 13.8 mph 20.7 mph N/A   Overcast
12:54 PM 52.0 °F - 21.9 °F 31% 29.95 in 10.0 mi SSE 10.4 mph - N/A   Overcast
1:54 PM 50.0 °F - 25.0 °F 38% 29.95 in 10.0 mi South 12.7 mph 24.2 mph 0.00 in Rain Light Rain
2:54 PM 44.1 °F 38.6 °F 36.0 °F 73% 29.93 in 9.0 mi South 10.4 mph 21.9 mph 0.01 in Rain Light Rain
3:54 PM 42.8 °F 37.0 °F 39.2 °F 87% 29.89 in 6.0 mi SSE 10.4 mph - N/A Rain Light Rain
4:54 PM 42.1 °F 35.7 °F 39.0 °F 89% 29.87 in 5.0 mi ESE 11.5 mph - 0.05 in Rain Rain
5:54 PM 41.0 °F 32.8 °F 39.0 °F 93% 29.80 in 4.0 mi ESE 16.1 mph 25.3 mph 0.10 in Rain Rain
6:19 PM 41.0 °F 31.9 °F 37.4 °F 87% 29.75 in 3.0 mi ESE 19.6 mph 26.5 mph 0.05 in Rain Rain
6:54 PM 39.9 °F 30.8 °F 36.0 °F 86% 29.75 in 6.0 mi ESE 18.4 mph 28.8 mph 0.07 in Rain Light Rain
7:14 PM 39.2 °F 30.8 °F 35.6 °F 87% 29.70 in 10.0 mi ESE 15.0 mph 27.6 mph 0.00 in Rain Light Rain
7:49 PM 39.2 °F 29.6 °F 35.6 °F 87% 29.67 in 6.0 mi SE 19.6 mph 26.5 mph 0.00 in Rain Light Rain
7:54 PM 39.9 °F 30.0 °F 36.0 °F 86% 29.69 in 9.0 mi ESE 21.9 mph 29.9 mph 0.01 in Rain Light Rain
8:14 PM 39.2 °F 30.2 °F 35.6 °F 87% 29.65 in 10.0 mi SE 17.3 mph 24.2 mph 0.00 in Rain Light Rain
8:54 PM 39.9 °F 31.1 °F 36.0 °F 86% 29.67 in 5.0 mi SE 17.3 mph 21.9 mph 0.00 in Rain Rain
9:13 PM 39.2 °F 31.6 °F 35.6 °F 87% 29.61 in 5.0 mi SE 12.7 mph - 0.05 in Rain Light Rain
9:54 PM 39.9 °F 34.5 °F 37.0 °F 89% 29.63 in 10.0 mi ESE 8.1 mph 16.1 mph 0.06 in Rain Light Rain
10:32 PM 39.2 °F 33.6 °F 37.4 °F 93% 29.56 in 8.0 mi East 8.1 mph - 0.01 in Rain Light Rain
10:54 PM 39.9 °F 33.9 °F 37.0 °F 89% 29.55 in 8.0 mi East 9.2 mph - 0.01 in Rain Light Rain
11:29 PM 39.2 °F 33.6 °F 37.4 °F 93% 29.53 in 2.0 mi East 8.1 mph - 0.03 in Rain Heavy Rain
11:42 PM 39.2 °F 33.0 °F 37.4 °F 93% 29.51 in 3.0 mi East 9.2 mph - 0.08 in Rain , Thunderstorm Thunderstorms and Rain
11:54 PM 39.9 °F 35.1 °F 37.9 °F 93% 29.52 in 3.0 mi East 6.9 mph - 0.12 in Rain , Thunderstorm Thunderstorms and Rain